Weather History for Twin Falls, ID

Change the Weather History Date:

Wednesday, December 25, 2013

  Actual Average Record
Temperature  
Mean Temperature 31 °F -  
Max Temperature 41 °F 36 °F 51 °F (2005)
Min Temperature 20 °F 20 °F -9 °F (1990)
Degree Days  
Heating Degree Days 34 37  
Month to date heating degree days 996 908  
Since 1 July heating degree days 2352 2346  
Cooling Degree Days 0 0  
Month to date cooling degree days 0 0  
Year to date cooling degree days 1138 680  
Moisture  
Dew Point 17 °F    
Average Humidity 63    
Maximum Humidity 81    
Minimum Humidity 44    
Precipitation  
Precipitation 0.00 in 0.04 in 0.25 in (1980)
Month to date precipitation 0.12 1.05  
Year to date precipitation 4.58 10.48  
Sea Level Pressure  
Sea Level Pressure 30.53 in    
Wind  
Wind Speed 7 mph (ESE)    
Max Wind Speed 15 mph    
Max Gust Speed 17 mph    
Visibility 10 miles    
Events      
T = Trace of Precipitation, MM = Missing Value Source: NWS Daily Summary

Daily Weather History Graph

Daily Weather History Graph

Search for Another Location

Airport:

Trip Planner

Search our weather history database for the weather conditions in past years. The results will help you decide how hot, cold, wet, or windy it might be!

Date:

Astronomy

Dec. 25, 2013 Rise Set
Actual Time 8:06 AM MST 5:10 PM MST
Civil Twilight 7:34 AM MST 5:42 PM MST
Nautical Twilight 6:58 AM MST 6:18 PM MST
Astronomical Twilight 6:24 AM MST 6:52 PM MST
Moon 12:31 AM MST (12/25) 12:22 PM MST (12/25)
Length of Visible Light 10h 08m
Length of Day
9h 04m
Waning Gibbous, 48% of the Moon is Illuminated
Dec 25
Waning Gibbous
Jan 1
New
Jan 7
First Quarter
Jan 15
Full
Jan 23
Last Quarter

Hourly Weather History & Observations

Time (MST) Temp. Windchill Dew Point Humidity Pressure Visibility Wind Dir Wind Speed Gust Speed Precip Events Conditions
12:53 AM 30.9 °F 20.7 °F 17.1 °F 57% 30.51 in 10.0 mi South 13.8 mph - N/A   Clear
1:53 AM 30.0 °F 20.5 °F 17.1 °F 59% 30.52 in 10.0 mi SSW 11.5 mph - N/A   Clear
2:53 AM 28.0 °F 17.5 °F 16.0 °F 61% 30.53 in 10.0 mi South 12.7 mph - N/A   Clear
3:53 AM 26.1 °F 16.2 °F 16.0 °F 66% 30.54 in 10.0 mi South 10.4 mph - N/A   Clear
4:53 AM 26.1 °F 16.2 °F 15.1 °F 63% 30.54 in 10.0 mi South 10.4 mph - N/A   Clear
5:53 AM 26.1 °F 15.0 °F 14.0 °F 60% 30.56 in 10.0 mi South 12.7 mph - N/A   Clear
6:53 AM 27.0 °F 16.1 °F 12.9 °F 56% 30.56 in 10.0 mi SSW 12.7 mph - N/A   Clear
7:53 AM 27.0 °F 16.1 °F 12.9 °F 56% 30.56 in 10.0 mi SSW 12.7 mph - N/A   Clear
8:53 AM 27.0 °F 19.5 °F 14.0 °F 58% 30.58 in 10.0 mi SSE 6.9 mph - N/A   Clear
9:53 AM 30.0 °F 25.2 °F 16.0 °F 56% 30.60 in 10.0 mi East 4.6 mph - N/A   Clear
10:53 AM 34.0 °F 31.0 °F 17.1 °F 50% 30.58 in 10.0 mi East 3.5 mph - N/A   Clear
11:53 AM 37.9 °F 33.5 °F 19.0 °F 47% 30.56 in 10.0 mi NE 5.8 mph - N/A   Clear
12:53 PM 37.9 °F 34.4 °F 19.9 °F 48% 30.53 in 10.0 mi ENE 4.6 mph - N/A   Clear
1:53 PM 39.0 °F 34.8 °F 19.9 °F 46% 30.51 in 10.0 mi NNE 5.8 mph - N/A   Clear
2:53 PM 39.9 °F 36.7 °F 19.9 °F 45% 30.49 in 10.0 mi NNE 4.6 mph - N/A   Clear
3:53 PM 39.9 °F 35.8 °F 19.9 °F 45% 30.50 in 10.0 mi North 5.8 mph - N/A   Clear
4:53 PM 36.0 °F 32.1 °F 19.9 °F 52% 30.51 in 10.0 mi NNE 4.6 mph - N/A   Clear
5:53 PM 27.0 °F 23.0 °F 18.0 °F 69% 30.52 in 10.0 mi ENE 3.5 mph - N/A   Clear
6:53 PM 23.0 °F 15.8 °F 17.1 °F 78% 30.52 in 10.0 mi ESE 5.8 mph - N/A   Clear
7:53 PM 23.0 °F 18.4 °F 17.1 °F 78% 30.53 in 10.0 mi SE 3.5 mph - N/A   Clear
8:53 PM 23.0 °F 17.0 °F 16.0 °F 74% 30.52 in 10.0 mi East 4.6 mph - N/A   Clear
9:53 PM 21.0 °F - 15.1 °F 78% 30.51 in 10.0 mi Calm Calm - N/A   Clear
10:53 PM 23.0 °F 17.0 °F 16.0 °F 74% 30.52 in 10.0 mi East 4.6 mph - N/A   Clear
11:53 PM 24.1 °F 15.2 °F 18.0 °F 77% 30.50 in 10.0 mi ESE 8.1 mph - N/A   Clear